{"data":{"norad_id":69488,"intl_designator":"2026-131L","name":"STARLINK-37449","alt_names":[],"object_type":"PAYLOAD","status":"ACTIVE","operator":null,"country":"US","launch_date":"2026-06-11","launch_site_code":"AFWTR","launch_vehicle":null,"mission":null,"orbit_class":"UNKNOWN","rcs_meters":null,"size_class":null,"mass_kg":null,"dimensions":null,"purposes":["comms"],"wikipedia_slug":null,"has_3d_model":false,"image_url":null,"decayed_at":null,"tle_current":{"epoch":"2026-09-20T00:26:23.980704Z","epoch_age_seconds":67032,"freshness":"FRESH","line1":"1 69488U 26131L   26263.01833311  .00004487  00000+0  14116-3 0  9995","line2":"2 69488  97.2844 283.8889 0001580  93.0988 267.0435 15.33458694 16820","mean_motion":15.33458694,"eccentricity":0.000158,"inclination_deg":97.2844,"raan_deg":283.8889,"arg_perigee_deg":93.0988,"mean_anomaly_deg":267.0435,"bstar":0.00014116,"rev_number":1682,"period_min":93.905366061331,"perigee_km":464.42113604178,"apogee_km":466.583726102,"semimajor_km":6843.6394310719,"source":"CELESTRAK","updated_at":"2026-09-20T09:00:44.207280Z"}}}